K0HYD Weather Reports


time (UTC)temp
C
wind
direction
speed
KPH
gust
KPH
rain 1hr
cm
rain 24hr
cm
rain mn
cm
humidity
%
barometer
mb
20260505111109 12 72 0.0 22.5 0.00 0.00 0.00 55 1005.3
20260505101105 12 18 9.7 27.4 0.00 0.00 0.00 59 1004.0
20260505095604 12 65 8.0 20.9 0.00 0.00 0.00 63 1004.0
20260505094103 12 41 11.3 20.9 0.00 0.00 0.00 62 1003.8
20260505091101 13 89 6.4 24.1 0.00 0.00 0.00 68 1003.4
20260505085600 13 58 1.6 22.5 0.00 0.00 0.00 71 1003.4
20260505081057 15 354 9.7 19.3 0.00 0.00 0.00 81 1002.4
20260505075557 15 65 0.0 8.0 0.00 0.00 0.00 82 1002.0
20260505074055 15 34 0.0 3.2 0.00 0.00 0.00 81 1002.2
20260505072554 15 23 0.0 8.0 0.00 0.00 0.00 82 1002.1
20260505071053 15 50 0.0 1.6 0.00 0.00 0.00 84 1001.8
20260505065553 15 11 1.6 17.7 0.00 0.00 0.00 84 1001.7
20260505064052 17 79 1.6 1.6 0.00 0.00 0.00 73 1001.6
20260505062551 18 39 0.0 19.3 0.00 0.00 0.00 69 1001.3
20260505061050 20 321 0.0 1.6 0.00 0.00 0.00 79 1001.6
20260505055549 21 43 0.0 1.6 0.00 0.00 0.00 80 1000.7
20260505054048 21 41 0.0 1.6 0.00 0.00 0.00 75 1000.5
20260505052547 21 158 0.0 6.4 0.00 0.00 0.00 75 1000.3
20260505035541 21 79 0.0 0.0 0.00 0.00 0.00 72 1000.0
20260505032539 22 152 0.0 1.6 0.00 0.00 0.00 68 999.5
20260505031038 22 134 0.0 1.6 0.00 0.00 0.00 66 999.9
20260505025537 22 142 0.0 1.6 0.00 0.00 0.00 64 999.3
20260505022535 23 165 0.0 19.3 0.00 0.00 0.00 62 999.5
20260505021034 23 163 0.0 6.4 0.00 0.00 0.00 60 999.6
20260505015534 23 126 1.6 4.8 0.00 0.00 0.00 59 1000.1
20260505012532 24 145 0.0 1.6 0.00 0.00 0.00 55 999.4
20260505011030 24 140 8.0 11.3 0.00 0.00 0.00 54 999.0
20260505005530 25 174 0.0 12.9 0.00 0.00 0.00 52 998.9
20260505004028 25 143 9.7 9.7 0.00 0.00 0.00 50 998.7
20260505002528 25 134 0.0 9.7 0.00 0.00 0.00 49 999.0
20260504235526 26 128 4.8 9.7 0.00 0.00 0.00 46 999.1
20260504234025 26 174 0.0 6.4 0.00 0.00 0.00 45 999.2
20260504232524 27 188 0.0 3.2 0.00 0.00 0.00 44 999.3
20260504231023 27 148 0.0 9.7 0.00 0.00 0.00 43 999.2
20260504225522 28 150 0.0 9.7 0.00 0.00 0.00 42 999.1
20260504224021 28 210 0.0 1.6 0.00 0.00 0.00 42 999.1
20260504222520 29 134 11.3 11.3 0.00 0.00 0.00 41 999.0
20260504221019 29 134 6.4 17.7 0.00 0.00 0.00 39 999.1
20260504214017 30 150 0.0 11.3 0.00 0.00 0.00 36 999.3
20260504212516 30 116 3.2 9.7 0.00 0.00 0.00 33 999.6
20260504205514 31 196 0.0 9.7 0.00 0.00 0.00 32 999.8
20260504204013 31 160 0.0 1.6 0.00 0.00 0.00 32 1000.0
20260504202512 31 196 0.0 0.0 0.00 0.00 0.00 33 1000.2
20260504201011 30 230 0.0 0.0 0.00 0.00 0.00 33 1000.4
20260504195511 31 126 1.6 3.2 0.00 0.00 0.00 33 1000.7
20260504194009 30 131 0.0 3.2 0.00 0.00 0.00 34 1001.0
20260504192509 30 148 0.0 1.6 0.00 0.00 0.00 34 1001.1
20260504185507 30 132 0.0 0.0 0.00 0.00 0.00 37 1001.6
20260504184006 28 129 0.0 0.0 0.00 0.00 0.00 38 1001.7
20260504182504 28 212 0.0 0.0 0.00 0.00 0.00 37 1002.0
20260504181004 27 136 0.0 3.2 0.00 0.00 0.00 39 1002.1
20260504175503 27 233 0.0 1.6 0.00 0.00 0.00 39 1002.3
20260504174002 27 253 0.0 3.2 0.00 0.00 0.00 40 1002.6
20260504172501 26 222 0.0 1.6 0.00 0.00 0.00 42 1002.5
20260504171000 25 221 0.0 1.6 0.00 0.00 0.00 44 1002.6
20260504150952 21 250 1.6 1.6 0.00 0.00 0.00 53 1002.8
20260504140948 18 242 0.0 1.6 0.00 0.00 0.00 58 1003.0